VVA86W SVMG-SVMI

Flight info

Callsign VVA86W
Flight time 0h 38m
Altitude 24000
Route ESPEP SARNI A561 CBC NETSI1
Aircraft MD11/H-SDE1E2E3FGHIJ2J3J4J5M1RWXY/LB1D1

Departure

Time 2026-04-25 02:08
Airport Del Caribe Santiago Mariño International Airport (SVMG)

Arrival

Time 2026-04-25 02:46
Airport Maiquetía Simón Bolívar International Airport (SVMI)
Time Latitude Longitude Altitude Speed Heading
2026-04-25 01:53 10.91632 -63.96587 67 ft 0 kts 349°
2026-04-25 01:59 10.91630 -63.96587 67 ft 2 kts 349°
2026-04-25 02:00 10.91613 -63.96583 59 ft 2 kts 349°
2026-04-25 02:00 10.91597 -63.96580 61 ft 2 kts 339°
2026-04-25 02:00 10.91583 -63.96572 59 ft 2 kts 300°
2026-04-25 02:00 10.91578 -63.96556 57 ft 2 kts 270°
2026-04-25 02:01 10.91579 -63.96539 58 ft 2 kts 261°
2026-04-25 02:01 10.91580 -63.96532 58 ft 0 kts 259°
2026-04-25 02:03 10.91578 -63.96540 58 ft 4 kts 259°
2026-04-25 02:03 10.91568 -63.96593 58 ft 11 kts 258°
2026-04-25 02:03 10.91546 -63.96696 67 ft 18 kts 258°
2026-04-25 02:04 10.91516 -63.96839 63 ft 20 kts 258°
2026-04-25 02:04 10.91490 -63.96960 60 ft 17 kts 255°
2026-04-25 02:04 10.91398 -63.97014 62 ft 12 kts 187°
2026-04-25 02:04 10.91351 -63.97083 62 ft 15 kts 258°
2026-04-25 02:05 10.91324 -63.97215 69 ft 22 kts 258°
2026-04-25 02:05 10.91287 -63.97393 64 ft 28 kts 258°
2026-04-25 02:05 10.91245 -63.97599 65 ft 32 kts 258°
2026-04-25 02:05 10.91203 -63.97800 59 ft 27 kts 258°
2026-04-25 02:06 10.91167 -63.97981 60 ft 26 kts 258°
2026-04-25 02:06 10.91087 -63.98140 61 ft 24 kts 198°
2026-04-25 02:06 10.91013 -63.98089 86 ft 9 kts 124°
2026-04-25 02:06 10.90990 -63.98047 89 ft 8 kts 109°
2026-04-25 02:07 10.90999 -63.97943 85 ft 27 kts 78°
2026-04-25 02:07 10.91098 -63.97464 72 ft 110 kts 78°
2026-04-25 02:07 10.91292 -63.96527 62 ft 153 kts 78°
2026-04-25 02:07 10.91520 -63.95402 150 ft 168 kts 78°
2026-04-25 02:08 10.91757 -63.94220 488 ft 172 kts 78°
2026-04-25 02:08 10.91992 -63.93011 882 ft 174 kts 77°
2026-04-25 02:08 10.92225 -63.91810 1341 ft 172 kts 78°
2026-04-25 02:08 10.92353 -63.90599 1924 ft 172 kts 103°
2026-04-25 02:09 10.91666 -63.89645 2831 ft 177 kts 149°
2026-04-25 02:09 10.90416 -63.89425 3666 ft 203 kts 180°
2026-04-25 02:09 10.88849 -63.89732 3883 ft 253 kts 191°
2026-04-25 02:09 10.87079 -63.90225 4609 ft 268 kts 193°
2026-04-25 02:10 10.85270 -63.90738 5607 ft 273 kts 193°
2026-04-25 02:10 10.83418 -63.91249 6550 ft 278 kts 193°
2026-04-25 02:10 10.81537 -63.91765 7453 ft 283 kts 194°
2026-04-25 02:10 10.79673 -63.92457 8345 ft 288 kts 204°
2026-04-25 02:11 10.77949 -63.93514 9240 ft 293 kts 217°
2026-04-25 02:11 10.76496 -63.94980 10095 ft 298 kts 232°
2026-04-25 02:11 10.75371 -63.96861 10328 ft 327 kts 247°
2026-04-25 02:11 10.74752 -63.99191 10474 ft 357 kts 262°
2026-04-25 02:12 10.74587 -64.01746 10910 ft 372 kts 269°
2026-04-25 02:12 10.74582 -64.04394 11739 ft 377 kts 270°
2026-04-25 02:12 10.74600 -64.07071 12587 ft 380 kts 270°
2026-04-25 02:12 10.74605 -64.09777 13419 ft 384 kts 270°
2026-04-25 02:13 10.74589 -64.12510 14163 ft 388 kts 269°
2026-04-25 02:13 10.74556 -64.15272 14856 ft 392 kts 269°
2026-04-25 02:13 10.74512 -64.18058 15536 ft 396 kts 269°
2026-04-25 02:13 10.74462 -64.20871 16186 ft 399 kts 268°
2026-04-25 02:14 10.74409 -64.23704 16843 ft 403 kts 268°
2026-04-25 02:14 10.74353 -64.26566 17484 ft 407 kts 268°
2026-04-25 02:14 10.74296 -64.29455 18108 ft 410 kts 268°
2026-04-25 02:14 10.74238 -64.32367 18661 ft 413 kts 268°
2026-04-25 02:15 10.74180 -64.35299 19210 ft 416 kts 268°
2026-04-25 02:15 10.74121 -64.38246 19752 ft 418 kts 268°
2026-04-25 02:15 10.74062 -64.41205 20258 ft 420 kts 268°
2026-04-25 02:15 10.74003 -64.44188 20776 ft 423 kts 268°
2026-04-25 02:16 10.73942 -64.47190 21308 ft 426 kts 268°
2026-04-25 02:16 10.73881 -64.50210 21837 ft 429 kts 268°
2026-04-25 02:16 10.73820 -64.53220 22363 ft 432 kts 268°
2026-04-25 02:16 10.73757 -64.56286 22799 ft 436 kts 268°
2026-04-25 02:17 10.73689 -64.59371 23176 ft 437 kts 266°
2026-04-25 02:17 10.73489 -64.62455 23558 ft 438 kts 263°
2026-04-25 02:17 10.73157 -64.65544 23836 ft 441 kts 262°
2026-04-25 02:17 10.72766 -64.68640 23921 ft 443 kts 261°
2026-04-25 02:18 10.72353 -64.71770 23948 ft 447 kts 261°
2026-04-25 02:18 10.71941 -64.74905 23954 ft 448 kts 261°
2026-04-25 02:18 10.71533 -64.78054 23955 ft 448 kts 262°
2026-04-25 02:18 10.71133 -64.81197 23957 ft 448 kts 262°
2026-04-25 02:19 10.70737 -64.84337 23956 ft 448 kts 262°
2026-04-25 02:19 10.70343 -64.87487 23957 ft 448 kts 262°
2026-04-25 02:19 10.69950 -64.90628 23956 ft 448 kts 262°
2026-04-25 02:19 10.69557 -64.93769 23957 ft 448 kts 262°
2026-04-25 02:20 10.69163 -64.96917 23959 ft 448 kts 262°
2026-04-25 02:20 10.68770 -65.00057 23959 ft 448 kts 262°
2026-04-25 02:20 10.68381 -65.03153 23959 ft 448 kts 262°
2026-04-25 02:20 10.67986 -65.06297 23961 ft 448 kts 262°
2026-04-25 02:21 10.67592 -65.09435 23959 ft 448 kts 262°
2026-04-25 02:21 10.67196 -65.12616 23963 ft 448 kts 262°
2026-04-25 02:21 10.66839 -65.15721 23964 ft 448 kts 263°
2026-04-25 02:21 10.66502 -65.18869 23965 ft 447 kts 263°
2026-04-25 02:22 10.66175 -65.22015 23963 ft 447 kts 263°
2026-04-25 02:22 10.65851 -65.25160 23964 ft 447 kts 263°
2026-04-25 02:22 10.65526 -65.28309 23962 ft 447 kts 263°
2026-04-25 02:22 10.65200 -65.31459 23966 ft 447 kts 263°
2026-04-25 02:23 10.64873 -65.34602 23966 ft 447 kts 263°
2026-04-25 02:23 10.64545 -65.37747 23966 ft 447 kts 263°
2026-04-25 02:23 10.64216 -65.40887 23965 ft 447 kts 263°
2026-04-25 02:23 10.63886 -65.44033 23969 ft 447 kts 263°
2026-04-25 02:24 10.63560 -65.47139 23967 ft 447 kts 263°
2026-04-25 02:24 10.63229 -65.50292 23969 ft 447 kts 263°
2026-04-25 02:24 10.62898 -65.53437 23967 ft 447 kts 263°
2026-04-25 02:24 10.62567 -65.56585 23967 ft 447 kts 263°
2026-04-25 02:25 10.62235 -65.59732 23970 ft 447 kts 263°
2026-04-25 02:25 10.61904 -65.62872 23972 ft 447 kts 263°
2026-04-25 02:25 10.61572 -65.66016 23973 ft 447 kts 263°
2026-04-25 02:25 10.61240 -65.69161 23967 ft 447 kts 263°
2026-04-25 02:26 10.60908 -65.72302 23968 ft 447 kts 263°
2026-04-25 02:26 10.60575 -65.75447 23967 ft 448 kts 263°
2026-04-25 02:26 10.60241 -65.78601 23969 ft 448 kts 263°
2026-04-25 02:26 10.59912 -65.81702 23970 ft 448 kts 263°
2026-04-25 02:27 10.59573 -65.84892 23971 ft 448 kts 263°
2026-04-25 02:27 10.59243 -65.87996 23971 ft 448 kts 263°
2026-04-25 02:27 10.58908 -65.91145 23971 ft 448 kts 263°
2026-04-25 02:27 10.58573 -65.94297 23972 ft 448 kts 263°
2026-04-25 02:28 10.58236 -65.97445 23975 ft 448 kts 263°
2026-04-25 02:28 10.57897 -66.00588 23975 ft 448 kts 263°
2026-04-25 02:28 10.57602 -66.03748 23971 ft 449 kts 267°
2026-04-25 02:28 10.57730 -66.06912 23976 ft 449 kts 275°
2026-04-25 02:29 10.58198 -66.10060 23978 ft 450 kts 279°
2026-04-25 02:29 10.58806 -66.13181 23982 ft 451 kts 281°
2026-04-25 02:29 10.59451 -66.16299 23978 ft 450 kts 281°
2026-04-25 02:29 10.60088 -66.19423 23980 ft 450 kts 280°
2026-04-25 02:30 10.60697 -66.22505 23983 ft 450 kts 280°
2026-04-25 02:30 10.61293 -66.25616 23859 ft 447 kts 279°
2026-04-25 02:30 10.61876 -66.28722 23484 ft 447 kts 279°
2026-04-25 02:30 10.62450 -66.31817 22819 ft 443 kts 279°
2026-04-25 02:31 10.63014 -66.34873 22134 ft 437 kts 279°
2026-04-25 02:31 10.63570 -66.37894 21475 ft 432 kts 279°
2026-04-25 02:31 10.64120 -66.40883 20842 ft 428 kts 279°
2026-04-25 02:31 10.64665 -66.43846 20217 ft 425 kts 279°
2026-04-25 02:32 10.65205 -66.46784 19590 ft 421 kts 280°
2026-04-25 02:32 10.65740 -66.49691 18990 ft 417 kts 280°
2026-04-25 02:32 10.66271 -66.52576 18385 ft 413 kts 280°
2026-04-25 02:32 10.66797 -66.55435 17713 ft 409 kts 280°
2026-04-25 02:33 10.67316 -66.58263 17081 ft 405 kts 280°
2026-04-25 02:33 10.67831 -66.61067 16473 ft 402 kts 280°
2026-04-25 02:33 10.68336 -66.63823 15892 ft 398 kts 280°
2026-04-25 02:33 10.68843 -66.66589 15314 ft 395 kts 281°
2026-04-25 02:34 10.69344 -66.69321 14750 ft 392 kts 281°
2026-04-25 02:34 10.69843 -66.72045 14185 ft 389 kts 281°
2026-04-25 02:34 10.70337 -66.74739 13600 ft 386 kts 281°
2026-04-25 02:34 10.70827 -66.77413 12998 ft 383 kts 281°
2026-04-25 02:35 10.71312 -66.80063 12432 ft 378 kts 281°
2026-04-25 02:35 10.71792 -66.82684 11900 ft 377 kts 281°
2026-04-25 02:35 10.72270 -66.85298 11421 ft 374 kts 281°
2026-04-25 02:35 10.72744 -66.87895 11132 ft 373 kts 281°
2026-04-25 02:36 10.73199 -66.90408 11008 ft 347 kts 281°
2026-04-25 02:36 10.73618 -66.92724 10885 ft 320 kts 281°
2026-04-25 02:36 10.74007 -66.94872 10766 ft 300 kts 281°
2026-04-25 02:36 10.74378 -66.96910 10666 ft 295 kts 281°
2026-04-25 02:37 10.74750 -66.98954 10524 ft 294 kts 281°
2026-04-25 02:37 10.75123 -67.01000 10226 ft 294 kts 281°
2026-04-25 02:37 10.75496 -67.03044 9725 ft 293 kts 281°
2026-04-25 02:37 10.75864 -67.05067 9183 ft 289 kts 281°
2026-04-25 02:38 10.76229 -67.07073 8697 ft 287 kts 281°
2026-04-25 02:38 10.76591 -67.09062 8198 ft 285 kts 281°
2026-04-25 02:38 10.76951 -67.11037 7734 ft 282 kts 281°
2026-04-25 02:38 10.77306 -67.12989 7305 ft 280 kts 281°
2026-04-25 02:39 10.77659 -67.14932 6868 ft 278 kts 280°
2026-04-25 02:39 10.77884 -67.16877 6442 ft 276 kts 269°
2026-04-25 02:39 10.77501 -67.18759 6041 ft 273 kts 244°
2026-04-25 02:39 10.76353 -67.20264 5637 ft 271 kts 217°
2026-04-25 02:40 10.74666 -67.21054 5240 ft 269 kts 189°
2026-04-25 02:40 10.72805 -67.21163 4900 ft 269 kts 178°
2026-04-25 02:40 10.70946 -67.21071 4545 ft 271 kts 175°
2026-04-25 02:40 10.69074 -67.20950 4187 ft 269 kts 175°
2026-04-25 02:41 10.67231 -67.20834 4030 ft 259 kts 175°
2026-04-25 02:41 10.65460 -67.20729 4008 ft 253 kts 175°
2026-04-25 02:41 10.63697 -67.20612 4003 ft 253 kts 172°
2026-04-25 02:41 10.61995 -67.20171 3856 ft 254 kts 154°
2026-04-25 02:42 10.60659 -67.19118 3371 ft 234 kts 126°
2026-04-25 02:42 10.60001 -67.17698 2884 ft 213 kts 101°
2026-04-25 02:42 10.59905 -67.16279 2483 ft 194 kts 89°
2026-04-25 02:42 10.59918 -67.15390 2257 ft 181 kts 89°
2026-04-25 02:43 10.59952 -67.13781 1819 ft 169 kts 89°
2026-04-25 02:43 10.59949 -67.12592 1543 ft 167 kts 91°
2026-04-25 02:43 10.59919 -67.11419 1386 ft 165 kts 92°
2026-04-25 02:43 10.59858 -67.10256 1394 ft 165 kts 94°
2026-04-25 02:44 10.59817 -67.09466 1374 ft 166 kts 92°
2026-04-25 02:44 10.59817 -67.08307 1383 ft 167 kts 88°
2026-04-25 02:44 10.59870 -67.07117 1345 ft 166 kts 87°
2026-04-25 02:44 10.59995 -67.05969 1130 ft 165 kts 81°
2026-04-25 02:45 10.60134 -67.04815 943 ft 164 kts 87°
2026-04-25 02:45 10.60137 -67.03659 733 ft 163 kts 92°
2026-04-25 02:45 10.60171 -67.02505 481 ft 163 kts 88°
2026-04-25 02:45 10.60205 -67.01345 294 ft 164 kts 89°
2026-04-25 02:46 10.60243 -67.00294 237 ft 124 kts 88°
2026-04-25 02:46 10.60264 -66.99618 218 ft 67 kts 88°
2026-04-25 02:46 10.60275 -66.99340 212 ft 27 kts 88°
2026-04-25 02:46 10.60280 -66.99177 207 ft 16 kts 88°
2026-04-25 02:47 10.60250 -66.99117 200 ft 9 kts 153°
2026-04-25 02:47 10.60174 -66.99103 207 ft 13 kts 169°
2026-04-25 02:47 10.60077 -66.99084 208 ft 15 kts 184°
2026-04-25 02:47 10.60024 -66.99148 210 ft 11 kts 256°
2026-04-25 02:48 10.60008 -66.99215 215 ft 9 kts 256°
2026-04-25 02:48 10.59993 -66.99277 220 ft 9 kts 256°
2026-04-25 02:48 10.59976 -66.99345 220 ft 11 kts 256°
2026-04-25 02:48 10.59957 -66.99423 222 ft 12 kts 256°
2026-04-25 02:49 10.59937 -66.99503 225 ft 11 kts 256°
2026-04-25 02:49 10.59919 -66.99577 236 ft 10 kts 256°
2026-04-25 02:49 10.59918 -66.99641 237 ft 8 kts 298°
2026-04-25 02:49 10.59980 -66.99662 238 ft 14 kts 358°
2026-04-25 02:50 10.60103 -66.99665 228 ft 17 kts 353°
2026-04-25 02:50 10.60141 -66.99746 229 ft 15 kts 264°
2026-04-25 02:50 10.60134 -66.99862 235 ft 17 kts 264°
2026-04-25 02:50 10.60121 -66.99999 237 ft 23 kts 266°
2026-04-25 02:51 10.60117 -67.00162 239 ft 25 kts 269°
2026-04-25 02:51 10.60095 -67.00283 240 ft 16 kts 228°
2026-04-25 02:51 10.59986 -67.00294 240 ft 17 kts 176°
2026-04-25 02:51 10.59927 -67.00344 241 ft 14 kts 253°
2026-04-25 02:52 10.59920 -67.00472 242 ft 22 kts 269°
2026-04-25 02:52 10.59916 -67.00640 243 ft 23 kts 268°
2026-04-25 02:52 10.59910 -67.00812 245 ft 25 kts 268°
2026-04-25 02:52 10.59906 -67.00939 246 ft 11 kts 268°
2026-04-25 02:53 10.59904 -67.01012 247 ft 11 kts 268°
2026-04-25 02:53 10.59901 -67.01106 248 ft 14 kts 268°
2026-04-25 02:53 10.59874 -67.01159 249 ft 9 kts 214°
2026-04-25 02:53 10.59824 -67.01165 249 ft 5 kts 179°
2026-04-25 02:54 10.59812 -67.01165 249 ft 0 kts 179°